Location: ???? ????
(41.4149°N, 22.8816°E)
Time: 11:53:24
(UTC+00:00)

Cosmos 1242 Rocket - Pass Details

Date: 14 July 2020
Orbit: 448 x 487 km, 81.2° (Epoch: 09 August)

Event Time Altitude Azimuth Distance (km) Brightness Sun altitude
Rises 01:43:33 0° 347° (NNW) 2,462 6.6 -13.2°
Reaches altitude 10° 01:45:38 10° 345° (NNW) 1,588 5.6 -13.0°
Maximum altitude 01:49:04 67° 262° (W) 496 2.4 -12.5°
Enters shadow 01:52:27 10° 180° (S) 1,568 4.7 -12.1°
